TimeCST,TemperatureF,Dew PointF,Humidity,Sea Level PressureIn,VisibilityMPH,Wind Direction,Wind SpeedMPH,Gust SpeedMPH,PrecipitationIn,Events,Conditions,WindDirDegrees,DateUTC
12:15 AM,33.8,32.0,93,30.35,10.0,Calm,Calm,-,N/A,,Clear,0,2012-11-19 06:15:00
12:35 AM,33.8,32.0,93,30.34,10.0,Calm,Calm,-,N/A,,Clear,0,2012-11-19 06:35:00
12:55 AM,33.8,32.0,93,30.33,10.0,Calm,Calm,-,N/A,,Clear,0,2012-11-19 06:55:00
1:15 AM,33.8,32.0,93,30.33,10.0,Calm,Calm,-,N/A,,Clear,0,2012-11-19 07:15:00
1:35 AM,33.8,32.0,93,30.33,10.0,Calm,Calm,-,N/A,,Clear,0,2012-11-19 07:35:00
2:15 AM,32.0,32.0,100,30.34,10.0,Calm,Calm,-,N/A,,Clear,0,2012-11-19 08:15:00
2:35 AM,32.0,32.0,100,30.34,10.0,Calm,Calm,-,N/A,,Clear,0,2012-11-19 08:35:00
3:15 AM,32.0,32.0,100,30.32,10.0,Calm,Calm,-,N/A,,Clear,0,2012-11-19 09:15:00
3:35 AM,32.0,32.0,100,30.32,10.0,Calm,Calm,-,N/A,,Clear,0,2012-11-19 09:35:00
3:55 AM,32.0,32.0,100,30.32,10.0,Calm,Calm,-,N/A,,Clear,0,2012-11-19 09:55:00
4:15 AM,32.0,32.0,100,30.33,10.0,Calm,Calm,-,N/A,,Clear,0,2012-11-19 10:15:00
4:35 AM,32.0,32.0,100,30.33,10.0,Calm,Calm,-,N/A,,Clear,0,2012-11-19 10:35:00
4:55 AM,32.0,32.0,100,30.33,10.0,Calm,Calm,-,N/A,,Clear,0,2012-11-19 10:55:00
5:15 AM,32.0,32.0,100,30.33,10.0,Calm,Calm,-,N/A,,Clear,0,2012-11-19 11:15:00
5:35 AM,32.0,32.0,100,30.33,10.0,Calm,Calm,-,N/A,,Clear,0,2012-11-19 11:35:00
5:55 AM,32.0,32.0,100,30.33,10.0,Calm,Calm,-,N/A,,Clear,0,2012-11-19 11:55:00
6:15 AM,32.0,32.0,100,30.33,10.0,Calm,Calm,-,N/A,,Clear,0,2012-11-19 12:15:00
6:35 AM,32.0,32.0,100,30.33,10.0,Calm,Calm,-,N/A,,Clear,0,2012-11-19 12:35:00
6:55 AM,32.0,32.0,100,30.33,10.0,Calm,Calm,-,N/A,,Clear,0,2012-11-19 12:55:00
7:15 AM,33.8,33.8,100,30.34,10.0,Calm,Calm,-,N/A,,Clear,0,2012-11-19 13:15:00
7:35 AM,33.8,33.8,100,30.34,10.0,Calm,Calm,-,N/A,,Clear,0,2012-11-19 13:35:00
7:55 AM,37.4,35.6,93,30.34,10.0,Calm,Calm,-,N/A,,Clear,0,2012-11-19 13:55:00
8:15 AM,41.0,37.4,87,30.35,10.0,Calm,Calm,-,N/A,,Clear,0,2012-11-19 14:15:00
8:35 AM,41.0,39.2,93,30.35,10.0,Calm,Calm,-,N/A,,Clear,0,2012-11-19 14:35:00
8:55 AM,44.6,41.0,87,30.36,10.0,Calm,Calm,-,N/A,,Clear,0,2012-11-19 14:55:00
9:15 AM,46.4,39.2,76,30.36,10.0,Calm,Calm,-,N/A,,Clear,0,2012-11-19 15:15:00
9:35 AM,48.2,39.2,71,30.36,10.0,Calm,Calm,-,N/A,,Clear,0,2012-11-19 15:35:00
9:55 AM,51.8,37.4,58,30.36,10.0,Calm,Calm,-,N/A,,Clear,0,2012-11-19 15:55:00
10:15 AM,53.6,39.2,58,30.35,10.0,Calm,Calm,-,N/A,,Clear,0,2012-11-19 16:15:00
10:35 AM,55.4,41.0,58,30.34,10.0,Calm,Calm,-,N/A,,Clear,0,2012-11-19 16:35:00
10:55 AM,60.8,41.0,48,30.34,10.0,SSW,4.6,-,N/A,,Scattered Clouds,200,2012-11-19 16:55:00
11:15 AM,60.8,41.0,48,30.33,10.0,SW,4.6,-,N/A,,Scattered Clouds,220,2012-11-19 17:15:00
11:35 AM,62.6,41.0,45,30.32,10.0,Calm,Calm,-,N/A,,Clear,0,2012-11-19 17:35:00
12:15 PM,62.6,41.0,45,30.30,10.0,SE,4.6,-,N/A,,Scattered Clouds,140,2012-11-19 18:15:00
12:35 PM,62.6,41.0,45,30.29,10.0,Calm,Calm,-,N/A,,Clear,0,2012-11-19 18:35:00
12:55 PM,62.6,41.0,45,30.28,10.0,Calm,Calm,-,N/A,,Clear,0,2012-11-19 18:55:00
1:15 PM,62.6,41.0,45,30.28,10.0,NE,3.5,-,N/A,,Mostly Cloudy,50,2012-11-19 19:15:00
1:35 PM,62.6,41.0,45,30.27,10.0,Calm,Calm,-,N/A,,Mostly Cloudy,0,2012-11-19 19:35:00
1:55 PM,64.4,41.0,42,30.26,10.0,Calm,Calm,-,N/A,,Mostly Cloudy,0,2012-11-19 19:55:00
2:15 PM,64.4,41.0,42,30.25,10.0,Calm,Calm,-,N/A,,Scattered Clouds,0,2012-11-19 20:15:00
2:35 PM,64.4,41.0,42,30.25,10.0,Calm,Calm,-,N/A,,Mostly Cloudy,0,2012-11-19 20:35:00
3:15 PM,64.4,41.0,42,30.23,10.0,Calm,Calm,-,N/A,,Clear,0,2012-11-19 21:15:00
3:35 PM,62.6,42.8,48,30.23,10.0,NE,5.8,-,N/A,,Clear,40,2012-11-19 21:35:00
4:15 PM,60.8,42.8,52,30.21,10.0,ENE,4.6,-,N/A,,Clear,60,2012-11-19 22:15:00
4:35 PM,60.8,42.8,52,30.21,10.0,ENE,3.5,-,N/A,,Clear,60,2012-11-19 22:35:00
4:55 PM,55.4,42.8,63,30.21,10.0,North,4.6,-,N/A,,Clear,360,2012-11-19 22:55:00
5:15 PM,53.6,42.8,67,30.22,10.0,Calm,Calm,-,N/A,,Clear,0,2012-11-19 23:15:00
5:35 PM,50.0,42.8,76,30.22,10.0,Calm,Calm,-,N/A,,Clear,0,2012-11-19 23:35:00
5:55 PM,50.0,42.8,76,30.21,10.0,Calm,Calm,-,N/A,,Clear,0,2012-11-19 23:55:00
6:15 PM,46.4,41.0,81,30.22,10.0,Calm,Calm,-,N/A,,Clear,0,2012-11-20 00:15:00
6:35 PM,46.4,41.0,81,30.23,10.0,Calm,Calm,-,N/A,,Clear,0,2012-11-20 00:35:00
6:55 PM,44.6,39.2,81,30.23,10.0,Calm,Calm,-,N/A,,Clear,0,2012-11-20 00:55:00
7:15 PM,44.6,39.2,81,30.24,10.0,Calm,Calm,-,N/A,,Scattered Clouds,0,2012-11-20 01:15:00
7:35 PM,44.6,41.0,87,30.23,10.0,Calm,Calm,-,N/A,,Mostly Cloudy,0,2012-11-20 01:35:00
7:55 PM,44.6,39.2,81,30.24,10.0,Calm,Calm,-,N/A,,Overcast,0,2012-11-20 01:55:00
8:15 PM,44.6,41.0,87,30.24,10.0,Calm,Calm,-,N/A,,Mostly Cloudy,0,2012-11-20 02:15:00
8:35 PM,44.6,41.0,87,30.23,10.0,Calm,Calm,-,N/A,,Mostly Cloudy,0,2012-11-20 02:35:00
9:15 PM,44.6,41.0,87,30.22,10.0,Calm,Calm,-,N/A,,Scattered Clouds,0,2012-11-20 03:15:00
9:35 PM,46.4,42.8,87,30.22,10.0,Calm,Calm,-,N/A,,Clear,0,2012-11-20 03:35:00
9:55 PM,44.6,41.0,87,30.23,10.0,Calm,Calm,-,N/A,,Scattered Clouds,0,2012-11-20 03:55:00
10:15 PM,44.6,42.8,93,30.22,10.0,Calm,Calm,-,N/A,,Scattered Clouds,0,2012-11-20 04:15:00
10:35 PM,44.6,42.8,93,30.21,10.0,Calm,Calm,-,N/A,,Clear,0,2012-11-20 04:35:00
10:55 PM,44.6,41.0,87,30.21,10.0,Calm,Calm,-,N/A,,Clear,0,2012-11-20 04:55:00
11:15 PM,44.6,42.8,93,30.21,10.0,Calm,Calm,-,N/A,,Clear,0,2012-11-20 05:15:00
11:35 PM,42.8,41.0,93,30.21,10.0,Calm,Calm,-,N/A,,Clear,0,2012-11-20 05:35:00